Volver al catálogo

STARLINK-36603

ActivoComunicacionesSSO
NORAD 67592·PAYLOAD·🇺🇸 United States

Lanzado Jan 29, 2026 desde Vandenberg Space Force Base

Loading…

Próximos Pases (próximas 24 horas)

TLE

ActualizadoSource: CelesTrak SupGP

Época: Sep 14, 2026, 23:14 UTC

1 67592C 26018D   26257.96854167  .00006584  00000+0  20441-3 0  2577
2 67592  97.2853 321.5047 0000545  91.7873 230.8553 15.33433253    15

Sigue STARLINK-36603 en tiempo real con AllMySat

Download on the App Store